Location: American Medical Response
(33.3472°N, 96.5511°W)
Time: 17:10:05
(UTC+00:00)

SL-4 R/B - Pass Details

Date: 11 July 2022
Orbit: 425 x 653 km, 51.6° (Epoch: 17 August)

Event Time Altitude Azimuth Distance (km) Brightness Sun altitude
Rises 10:30:15 0° 314° (NW) 2,586 5.3 -10.7°
Reaches altitude 10° 10:32:22 10° 316° (NW) 1,737 4.5 -10.3°
Maximum altitude 10:36:19 81° 42° (NE) 552 2.1 -9.6°
Drops below altitude 10° 10:40:35 10° 132° (SE) 1,874 4.9 -8.9°
Sets 10:42:56 0° 133° (SE) 2,809 5.8 -8.5°
